Погода в Володарке

Украина / Киевская область     49°31′33″N   29°54′54″E
темп.,
°C
ветер,
м/с
пор.,
м/с
влажн.,
%
обл.,
%
осадки,
мм/ч
давл.,
гПа
погр.,
м
7 мая, пт
пт700:00+7зюз1168100 0.0 101410
03:00+6юз33685 0.0 101427
06:00+6ююз3370100 0.0 101444
09:00+11ююз476495 0.0 1013406
12:00+16ю8115499 0.0 10111732
15:00+13ю81479100 1.4 1010672
18:00+14ююз71183100 2.7 1007449
21:00+11ссв1296100 16.8 1007126
8 мая, сб
сб800:00+11ю4896100 1.6 1007310
03:00+11зюз4898100 2.1 1006319
06:00+10з51093100 1.4 1007458
09:00+6зсз91393100 2.0 1011835
12:00+9зсз7116636 0.1 10131610
15:00+10зсз10146093 0.2 10141926
18:00+9сз912725 0.1 10161370
21:00+5сз71180100 0.1 1019815
9 мая, вс
вс900:00+4зсз510835 0.0 1020411
03:00+2зсз411875 0.0 1022293
06:00+1зсз49920 0.0 1024216
09:00+8сз57690 0.0 1025654
12:00+12сз56537 0.0 10251683
15:00+14сз464696 0.0 10252321
18:00+13с245394 0.0 10251892
21:00+8в11655 0.0 102710
10 мая, пн
пн1000:00+6юв22735 0.0 102811
03:00+5ю22750 0.0 102812
06:00+5юв22760 0.0 102915
09:00+11юв34640 0.0 1029408
12:00+14вюв22490 0.0 10281390
15:00+16всв32450 0.0 10271601
18:00+15всв33510 0.0 10261358
21:00+9всв34740 0.0 102752
11 мая, вт
вт1100:00+7св22740 0.0 102719
03:00+6ссв33810 0.0 102641
06:00+6с37835 0.0 1025125
09:00+12ссв57650 0.0 1024419
12:00+17св57620 0.0 1022730
15:00+19св67605 0.0 10201026
18:00+19св587218 0.0 10191264
21:00+13в6129326 1.1 1020549